Lid_Strength_Index
9 11 11 9 8 8 9 9 10 8 7 9 9 9 7 5 6 6 5 6 5 4 2 2 3 2 1 1 1 1 1 1 1 2 1 1 1 1 0 -0 -1 -1 -1 -1
10 11 9 7 8 9 9 9 9 8 8 8 8 9 7 7 7 5 5 5 4 4 3 3 3 2 2 2 1 2 2 2 1 1 1 1 1 0 0 -0 -1 -1 -1 -1
10 8 7 8 9 10 9 9 9 10 8 8 9 9 8 7 6 6 5 4 4 4 4 3 2 2 2 2 2 2 1 1 1 1 2 0 -0 0 1 0 -0 -1 -1 -1
8 7 8 8 9 8 10 7 8 9 10 11 9 12 9 8 7 7 6 5 4 4 3 3 3 3 2 2 2 2 1 0 0 -1 -0 0 1 1 1 0 -0 -0 -1 -1
9 8 9 9 8 7 9 7 8 8 9 10 10 11 9 8 8 7 6 5 4 4 4 4 3 3 2 2 1 1 1 1 0 0 -0 1 1 1 0 0 0 -0 -1 -1
8 6 7 7 7 7 7 8 9 9 10 13 11 11 10 9 8 7 6 5 5 4 4 3 3 2 2 1 1 1 1 1 0 0 0 1 1 1 1 1 1 1 0 -0
9 8 6 6 8 7 8 9 13 14 14 14 11 11 10 8 7 6 6 6 5 4 4 3 3 3 2 2 2 3 2 2 2 2 2 2 2 2 2 2 2 2 2 1
12 13 8 7 8 9 9 9 12 17 16 13 11 13 10 7 6 5 5 5 4 4 4 3 3 3 3 3 2 3 3 3 3 3 3 3 3 4 4 3 3 4 3 3
12 11 7 7 6 7 10 11 9 13 13 13 12 11 8 7 7 6 6 5 5 4 4 4 4 3 3 4 4 4 4 4 4 4 4 4 4 4 4 3 3 4 3 4
9 12 9 8 7 7 8 7 12 11 17 17 14 13 11 9 9 7 7 6 6 6 5 5 4 4 4 4 4 4 4 5 5 5 5 5 4 4 4 4 5 5 5 4
7 10 11 9 10 10 10 10 11 11 13 16 16 13 8 8 7 7 6 6 6 6 5 5 5 5 5 5 5 5 5 5 5 5 5 5 5 5 5 5 5 5 5 5
8 10 12 12 9 8 9 10 10 14 15 13 13 13 7 7 6 6 6 7 6 6 6 6 6 6 5 5 5 5 5 5 5 5 5 5 5 5 6 6 6 5 5 4
9 13 16 13 10 9 10 10 10 11 11 14 16 14 7 7 7 7 7 7 7 6 6 6 6 6 6 6 5 6 6 6 6 5 6 6 6 6 6 6 6 5 5 6
8 12 14 17 15 11 13 11 10 10 14 13 13 11 9 8 7 7 7 7 7 7 7 6 6 6 6 6 6 6 6 6 6 6 6 7 6 6 7 6 5 5 6 7
9 13 12 11 11 11 11 12 11 12 11 13 11 12 9 8 7 7 7 7 7 7 7 6 6 6 6 6 6 6 6 6 6 7 7 7 6 6 6 6 6 7 7 7
9 13 11 13 11 11 12 11 10 11 10 11 11 11 7 6 6 7 7 7 7 7 7 7 7 7 7 7 7 6 6 7 7 8 8 8 7 7 7 7 8 7 7 7
11 11 13 15 12 12 14 11 10 10 9 10 12 9 7 8 7 7 7 7 7 7 7 7 7 7 7 7 6 7 7 7 7 8 8 8 7 8 8 9 8 8 8 7
11 11 12 15 13 18 11 8 8 9 9 8 8 7 7 7 6 7 7 7 7 7 7 7 7 7 7 7 7 8 7 8 8 9 8 8 9 10 9 9 9 9 8 7
8 11 14 15 15 12 11 10 10 11 11 8 8 7 7 7 6 7 7 7 7 7 7 8 7 7 7 8 8 9 9 9 10 9 9 10 10 11 10 10 10 8 7 7
9 9 12 14 17 18 12 8 7 7 12 7 7 7 7 7 10 8 7 8 8 8 7 8 8 8 8 8 8 9 10 10 10 11 12 11 11 11 11 10 9 7 7 8
13 12 14 15 15 12 8 7 7 14 12 7 6 6 7 8 8 7 7 8 8 8 8 7 8 9 9 8 9 11 11 11 11 12 12 11 11 11 10 8 8 8 8 8
13 15 15 14 16 17 7 8 11 8 6 6 6 7 9 8 8 8 8 8 8 8 8 8 9 9 8 9 10 11 12 12 13 12 12 12 11 10 9 9 9 9 9 8
14 11 13 12 12 8 6 7 6 5 6 6 6 6 7 8 8 8 8 9 9 9 8 8 8 8 8 9 11 13 13 13 13 13 12 12 11 10 9 9 10 10 8 7
9 8 10 10 9 8 7 5 5 4 6 6 6 7 7 8 8 9 9 9 9 9 9 8 8 9 10 11 13 13 13 13 13 13 13 12 11 10 8 9 9 8 7 8
9 9 10 10 8 7 7 5 5 5 6 8 8 7 8 8 9 9 10 9 9 9 8 7 8 11 13 13 13 13 13 13 14 13 13 12 11 10 10 9 9 8 6 6
8 9 10 10 7 7 7 5 5 6 6 7 7 8 8 8 9 9 10 9 9 9 8 8 10 12 13 13 13 14 13 13 13 14 14 13 11 12 11 10 8 8 9 9